www.pogodaiklimat.ru
ПОГОДА в Медан Полония
Время
(UTC), дата
09 8.07
12 8.07
15 8.07
18 8.07
21 8.07
00 9.07
03 9.07
06 9.07
09 9.07
12 9.07
15 9.07
18 9.07
21 9.07
00 10.07
03 10.07
06 10.07
09 10.07
12 10.07
15 10.07
18 10.07
21 10.07
00 11.07
03 11.07
06 11.07
09 11.07
12 11.07
15 11.07
18 11.07
21 11.07
00 12.07
03 12.07
06 12.07
09 12.07
12 12.07
15 12.07
18 12.07
21 12.07
00 13.07
03 13.07
06 13.07
09 13.07
12 13.07
15 13.07
18 13.07
21 13.07
00 14.07
03 14.07
06 14.07
09 14.07
12 14.07
15 14.07
18 14.07
21 14.07
00 15.07
03 15.07
06 15.07
Ветер
(напр.,м/с)
Видим. Явления Облачность Т
(С)
Тd
(С)
f
(%)
Тe
(С)
Тes
(С)
Комфортность P
(гПа)
Po
(гПа)
Тmin
(С)
Tmax
(С)
R
(мм)
R24
(мм)
S
(см)
В 3 10 км 8/4 540 м
[Sc Ac trans Ci fib]
+29.8 +24.3 72 +42 +44 опасность
перегрева
1006.9 1006.1
ЮЗ 2 10 км 6/3 540 м
[Sc Ac trans Ci fib]
+26.9 +23.6 82 +37 +37 очень
душно
1008.7 1007.8 +31.3
Ю 3 10 км 5/4 540 м
[Sc Ac As Cs]
+25.9 +23.1 85 +35 +35 очень
душно
1010.4 1009.6
З 2 10 км 5/4 540 м
[Sc Ac As Cs]
+25.2 +24.6 96 +35 +35 очень
душно
1009.6 1008.7
ЮЗ 3 10 км 5/4 540 м
[Sc Ac As Cs]
+25.1 +24.4 96 +35 +35 очень
душно
1008.6 1007.7
ЮЗ 2 10 км слаб. морось 6/5 540 м
[Cu med, cong Ac As Cs]
+24.6 +24.3 98 +34 +34 очень
душно
1009.5 1008.6 +22.8 0.0
ЮЗ 4 7000 м слаб. дождь 10/5 500 м
[Sc Ac As Cs]
+25.6 +24.2 92 +35 +38 очень
душно
1010.0 1009.0 0.8
В 3 10 км {дождь, снег} 9/4 540 м
[Cu hum Ac As Cs]
+30.5 +24.6 71 +43 +49 опасность
перегрева
1007.7 1006.7 0.0
СВ 4 10 км 8/4 540 м
[Cu med, cong Ac As Cs]
+30.4 +26.1 78 +46 +48 опасность
перегрева
1005.7 1004.7
СВ 3 10 км 9/5 500 м
[Cb cap Ac As Cs]
+27.4 +24.7 85 +39 +39 очень
душно
1007.6 1006.6 +31.4
ЮВ 3 10 км 9/4 500 м
[Sc Ac As Cs]
+26.9 +24.8 88 +38 +38 очень
душно
1009.9 1009.1
ЮВ 2 7000 м 9/4 500 м
[Sc Ac As Cs]
+25.8 +24.9 95 +37 +37 очень
душно
1008.5 1007.7
Ю 3 6000 м 9/4 500 м
[Sc Ac As Cs]
+25.7 +24.4 93 +36 +36 очень
душно
1008.6 1007.8
Ю 3 5000 м дымка 9/4 500 м
[Sc Ac As Cs]
+25.7 +24.8 95 +36 +37 очень
душно
1009.4 1008.6 +24.5 0.8
ЮВ 5 10 км 9/5 540 м
[Sc Ac As Cs]
+28.0 +24.6 82 +40 +42 очень
душно
1010.9 1009.9
В 4 10 км 9/6 500 м
[Cu med, cong Ac As Cs]
+31.0 +25.7 73 +46 +49 опасность
перегрева
1008.8 1007.8
СВ 4 10 км 8/4 540 м
[Cu med, cong Ac lent Ci fib]
+30.6 +25.6 75 +45 +47 опасность
перегрева
1006.8 1005.8
В 3 10 км 9/5 500 м
[Cu Sc Ac As Cs]
+28.2 +25.4 85 +41 +41 опасность
перегрева
1008.5 1007.5 +31.6
штиль 0 7000 м зарница 9/5 500 м
[Cb cap Ac As Cs]
+26.1 +23.2 84 +35 +35 очень
душно
1011.1 1010.2
Ю 6 8000 м зарница 9/5 500 м
[Cb cap Ac As Cs]
+23.4 +22.5 95 +32 +32 очень
душно
1009.1 1008.3
ЮЗ 2 8000 м 9/5 500 м
[Sc Ac As Cs]
+23.6 +23.3 98 +32 +32 очень
душно
1007.1 1006.3
ЮЗ 2 8000 м 9/3 500 м
[Sc Ac As Cs]
+23.9 +23.3 96 +32 +32 очень
душно
1008.6 1007.7 +23.1
В 4 10 км 6/3 500 м
[Sc Ac lent Ci fib]
+29.2 +25.0 78 +42 +47 опасность
перегрева
1009.7 1008.9
С 4 10 км 8/4 500 м
[Cu med, cong Ac lent Ci fib]
+30.3 +25.3 75 +44 +49 опасность
перегрева
1007.7 1006.9
СВ 6 10 км 8/4 500 м
[Cu med, cong Ac lent Ci fib]
+30.3 +25.3 75 +44 +46 опасность
перегрева
1005.8 1004.9
В 3 10 км 9/4 500 м
[Cu med, cong Ac As Cs]
+28.8 +25.0 80 +42 +42 опасность
перегрева
1008.5 1007.7 +31.7
ЮЗ 4 7000 м слаб. дождь 10/5 500 м
[Cb cap As op Cs]
+24.5 +23.8 96 +33 +33 очень
душно
1011.4 1010.5 0.6
З 3 10 км {дождь} 10/4 540 м
[Sc Ac As Cs]
+24.3 +23.4 95 +33 +33 очень
душно
1009.2 1008.4 0.3
З 1 10 км слаб. дождь 10/5 540 м
[Sc As op]
+24.6 +23.6 94 +33 +33 очень
душно
1008.5 1007.6 0.1
ЮВ 2 5000 м слаб. дождь 10/5 480 м
[St As op]
+24.2 +23.9 98 +33 +33 очень
душно
1009.7 1008.9 +23.4 0.8
Ю 2 10 км {дождь} 9/4 540 м
[Sc Ac As Cs]
+28.8 +23.9 75 +40 +45 очень
душно
1009.4 1008.6 0.1
С 3 10 км {дождь} 8/3 500 м
[Sc Ac As Cs]
+30.8 +25.5 73 +45 +52 опасность
перегрева
1007.2 1006.4 0.1
СВ 4 10 км 8/3 500 м
[Cu med, cong Ac As Cs]
+30.0 +25.2 76 +44 +46 опасность
перегрева
1005.7 1004.9
З 4 5000 м гроза, ливневой дождь 10/6 480 м
[Cb cap Ac As Cs]
+24.3 +23.6 96 +33 +33 очень
душно
1008.2 1007.4 +31.0 1
ЮЗ 1 6000 м {дождь} 8/4 540 м
[Sc Ac As Cs]
+24.6 +24.3 98 +34 +34 очень
душно
1009.6 1008.8 1
ЮЗ 2 6000 м {дождь} 8/4 540 м
[Sc Ac As Cs]
+24.5 +24.1 98 +34 +34 очень
душно
1008.3 1007.5 1
ЮВ 2 4000 м дымка 8/4 540 м
[Sc Ac As Cs]
+24.6 +24.0 96 +34 +34 очень
душно
1008.0 1007.1
ЮВ 2 7000 м 9/4 540 м
[Sc Ac As Cs]
+24.5 +23.5 94 +33 +33 очень
душно
1008.4 1007.6 +24.2 1
ЮВ 3 9000 м в посл. час дождь 10/5 540 м
[Sc Ac As Cs]
+26.0 +25.3 96 +38 +40 очень
душно
1009.9 1009.1 0.2
В 6 10 км {дождь} 9/5 480 м
[Cu med, cong Ac As Cs]
+29.1 +23.7 73 +40 +43 очень
душно
1008.7 1007.8 0.2
ЮВ 5 10 км 9/6 500 м
[Cu med, cong Ac As Cs]
+29.2 +24.4 75 +41 +42 опасность
перегрева
1006.5 1005.7
В 3 10 км 10/5 500 м
[Sc Ac As Cs]
+27.4 +24.9 86 +39 +39 очень
душно
1008.3 1007.4 +30.2
ЮВ 2 8000 м 10/4 500 м
[Sc Ac As Cs]
+26.7 +24.7 89 +38 +38 очень
душно
1009.8 1008.7
ЮВ 3 10 км 10/4 500 м
[Sc Ac As Cs]
+26.0 +24.6 92 +37 +37 очень
душно
1008.9 1007.8
ЮВ 3 9000 м 9/4 500 м
[Sc Ac As Cs]
+25.0 +24.1 95 +34 +34 очень
душно
1006.9 1005.7
ЮЗ 1 8000 м 9/4 500 м
[Sc Ac As Cs]
+25.0 +23.7 93 +34 +34 очень
душно
1007.3 1006.2 +24.5 0.2
ЮВ 2 10 км 9/4 500 м
[Sc Ac As Cs]
+29.1 +24.9 78 +42 +47 опасность
перегрева
1008.9 1008.1
СЗ 2 10 км 9/4 500 м
[Sc Ac As Cs]
+30.3 +24.4 71 +43 +49 опасность
перегрева
1007.9 1007.0
СВ 5 10 км 8/4 500 м
[Cu med, cong Ac As Cs]
+30.5 +25.5 75 +45 +47 опасность
перегрева
1006.1 1005.2
В 4 10 км 8/3 500 м
[Sc Ac As Cs]
+28.3 +25.5 85 +42 +42 опасность
перегрева
1008.0 1007.2 +31.3
ЮВ 3 10 км 5/3 540 м
[Sc Ac As Cs]
+27.1 +24.4 85 +38 +38 очень
душно
1008.7 1007.9
Ю 2 7000 м 5/3 540 м
[Sc Ac As Cs]
+26.1 +24.5 91 +37 +37 очень
душно
1007.4 1006.6
штиль 0 2000 м дымка 5/3 540 м
[Sc Ac As Cs]
+25.0 +24.9 99 +35 +35 очень
душно
1006.7 1005.9
штиль 0 3000 м дымка 4/3 540 м
[Sc Ac As Cs]
+24.8 +23.9 95 +34 +34 очень
душно
1008.0 1007.1 +24.2
В 4 8000 м 5/3 540 м
[Sc Ac lent Ci fib]
+29.4 +24.7 76 +42 +47 опасность
перегрева
1008.3 1007.5
СВ 3 10 км 5/3 500 м
[Cu med, cong Ac lent Ci fib]
+32.4 +24.5 63 +45 +56 опасность
перегрева
1006.6 1005.7
Местоположение метеостанции Медан Полония (Индонезия): широта 3.57 долгота 98.68 высота над уровнем моря 25 м.
В архиве по умолчанию представлена погода в Медан Полония за последнюю неделю. Архивные данные за месяц целиком и за предыдущие месяцы, начиная с января 2011 года, Вы можете получить, выбрав интересующий диапазон дат из раскрывающегося списка и нажав кнопку "Найти!".
*Определитесь, кто Вы:
Внимание! Время в таблицах - всемирное. Для получения местного времени необходимо прибавить поправку, которая равна 7 ч.
Смотрите также архив погоды в соседних городах и на ближайших метеорологических станциях:
Партнеры нашего сайта:
Ремонт микрофонов
Ремонт на расстоянии. Свои запчасти. Гарантия
звукоремонт.рф

Производство кухонного гарнитура в Балашихе
Производство кухонного гарнитура в Балашихе
kdsh-msk.ru

    пластиковое напольное покрытие продукція паркетная доска из массива e-parket.com.ua  
Пояснения к столбцам:
  • Ветер - указаны скорость ветра в м/с - средняя за 10 мин, порывы в срок и между сроками (в фигурных скобках) и направление, откуда дует ветер: С - северный,
  • СВ - северо-восточный, В - восточный, ЮВ - юго-восточный, Ю - южный, ЮЗ - юго-западный, З - западный, СЗ - северо-западный.
  • Видимость - горизонтальная дальность видимости в метрах или километрах. При видимости от 1 до 10 км при отсутствии осадков обычно наблюдается дымка, при ухудшении видимости до 1 км и менее - туман. В сухую погоду видимость может ухудшаться дымом, пылью или мглою.
  • Явления - указаны атмосферные явления, наблюдавшиеся в срок или в последний час перед сроком; фигурными скобками обозначены явления, наблюдавшиеся между сроками (за 1-3 часа до срока); квадратными скобками обозначены град или гололедные отложения с указанием их диаметра в мм.
  • Облачность - указаны через наклонную черту общая и нижняя облачность в баллах и высота нижней границы облаков в метрах; квадратными скобками обозначены формы облаков: Ci - перистые, Cs - перисто-слоистые, Cc - перисто-кучевые, Ac - высококучевые, As - высокослоистые, Sc - слоисто-кучевые, Ns - слоисто-дождевые, Cu - кучевые, Cb - кучево-дождевые. Подробнее классификацию облаков см. в Атласе облаков (PDF).
  • T - Температура воздуха - температура, измеренная на высоте 2 м над землей.
  • Td - Температура точки росы - температура, при понижении до которой содержащийся в воздухе водяной пар достигнет насыщения.
  • f - Относительная влажность воздуха - влажноcть воздуха, измеренная на высоте 2 м над землей.
  • Te - Эффективная температура - температура, которую ощущает одетый по сезону человек в тени. Характеристика душности погоды. При расчете учитывается влияние влажности воздуха и скорости ветра на теплоощущения человека.
  • Tes - Эффективная температура на солнце - температура, которую ощущает человек, с поправкой на солнечный нагрев. Характеристика знойности погоды. Зависит от высоты солнца над горизонтом, облачности и скорости ветра. Ночью, в пасмурную погоду, а также при ветре 12 м/с и более поправка равна нулю.
  • P - Атмосферное давление - приведенное к уровню моря атмосферное давление.
  • Po - Атмосферное давление - измеренное на уровне метеостанции атмосферное давление.
  • Tmin - Минимальная температура - минимум температуры воздуха на высоте 2 м над землей.
  • Tmax - Максимальная температура - максимум температуры воздуха на высоте 2 м над землей.
  • R - Количество осадков - Количество выпавших осадков за период времени, мм. При наведении курсора мыши на число - период времени, за который выпало указанное количество осадков.
  • R24 - Количество осадков - Количество выпавших осадков за 24 часа, мм.
  • S - Снежный покров - Высота снежного покрова, см. При наведении курсора мыши на число - состояние снежного покрова и степень покрытия местности в баллах.